This demonstration page uses our WeatherBlox Daily Observations layout. Learn more.

Left ArrowRight Arrow

36.19886, -115.1175

Hourly Observations for January 10, 2020

Temp ( °F °C ) Dew Point ( °F °C ) Humidity (%) Winds ( mph kmh ) Pressure ( in mb ) Visibility ( mi km ) Precip ( " mm )
12:53 am 00:53 Clear 47 8.3 22 -5.6 37 37 NNW 18 30 30.06 1018 10 16.0934 0 0
1:53 am 01:53 Clear 48 8.9 21 -6.1 34 34 NNW 16 26 30.09 1019 10 16.0934 0 0
2:53 am 02:53 Clear with Light Rain 48 8.9 17 -8.3 29 29 NW 28 44 30.11 1020 10 16.0934 0.001 0.001
3:53 am 03:53 Clear with Light Rain 47 8.3 15 -9.4 28 28 NW 24 39 30.13 1020 10 16.0934 0.001 0.001
4:53 am 04:53 Clear with Light Rain 47 8.3 14 -10 26 26 NW 20 31 30.16 1021 10 16.0934 0.001 0.001
5:53 am 05:53 Clear 44 6.7 14 -10 30 30 N 14 22 30.2 1023 10 16.0934 0.001 0.001
6:53 am 06:53 Sunny 42 5.6 15 -9.4 33 33 N 14 22 30.24 1024 10 16.0934 0 0
7:53 am 07:53 Sunny 43 6.1 14 -10 31 31 NNW 20 31 30.28 1025 10 16.0934 0 0
8:53 am 08:53 Sunny with Light Rain 46 7.8 13 -10.6 26 26 NNW 17 28 30.32 1027 10 16.0934 0.001 0.001
9:53 am 09:53 Sunny 48 8.9 13 -10.6 24 24 NW 13 20 30.34 1028 10 16.0934 0.001 0.001
10:53 am 10:53 Sunny 52 11.1 12 -11.1 20 20 ENE 9 15 30.34 1027 10 16.0934 0.001 0.001
11:53 am 11:53 Sunny 53 11.7 9 -12.8 17 17 NW 17 28 30.32 1027 10 16.0934 0 0
12:53 pm 12:53 Sunny 54 12.2 9 -12.8 16 16 NW 15 24 30.3 1026 10 16.0934 0 0
1:53 pm 13:53 Sunny 54 12.2 8 -13.3 16 16 NW 12 19 30.29 1026 10 16.0934 0 0
2:53 pm 14:53 Sunny 54 12.2 11 -11.7 18 18 ESE 8 13 30.29 1026 10 16.0934 0 0
3:53 pm 15:53 Sunny 53 11.7 11 -11.7 18 18 SE 8 13 30.29 1026 10 16.0934 0 0
4:53 pm 16:53 Clear 51 10.6 10 -12.2 19 19 ESE 7 11 30.31 1026 10 16.0934 0 0
5:53 pm 17:53 Clear 49 9.4 11 -11.7 21 21 SE 7 11 30.32 1027 10 16.0934 0 0
6:53 pm 18:53 Clear 49 9.4 11 -11.7 21 21 Calm 30.32 1027 10 16.0934 0 0
7:53 pm 19:53 Clear 47 8.3 13 -10.6 25 25 Calm 30.32 1027 10 16.0934 0 0
8:53 pm 20:53 Clear 44 6.7 16 -8.9 32 32 Calm 30.31 1027 10 16.0934 0 0
9:53 pm 21:53 Clear 43 6.1 17 -8.3 35 35 N 5 7 30.31 1026 10 16.0934 0 0
10:53 pm 22:53 Clear 41 5 17 -8.3 38 38 W 5 7 30.28 1025 10 16.0934 0 0
11:53 pm 23:53 Clear 39 3.9 17 -8.3 41 41 WNW 5 7 30.26 1025 10 16.0934 0 0

Powered by AerisWeather